Location: Newark
(44.0160°N, 116.9215°W)
Time: 02:33:51
(UTC+00:00)

Envisat - Pass Details

Date: 20 November 2019
Orbit: 764 x 766 km, 98.1° (Epoch: 12 December)

Event Time Altitude Azimuth Distance (km) Brightness Sun altitude
Rises 13:43:28 0° 25° (NNE) 3,241 6.4 -11.8°
Reaches altitude 10° 13:46:12 10° 39° (NE) 2,309 5.8 -11.3°
Maximum altitude 13:50:20 25° 93° (E) 1,522 5.6 -10.6°
Drops below altitude 10° 13:54:26 10° 148° (SSE) 2,295 6.3 -9.9°
Sets 13:57:07 0° 161° (SSE) 3,215 6.8 -9.4°
